Observations
| Time | Sensor | AQI | SAQ | Temp °C | Hum % | Pres Pa | CO μg/m³ | H₂S μg/m³ | NO μg/m³ | NO₂ μg/m³ | O₃ μg/m³ | SO₂ μg/m³ | CO₂e PPM | VOC PPM | PM1 μg/m³ | PM2.5 μg/m³ | PM4 μg/m³ | PM10 μg/m³ | TPS µm |
|---|---|---|---|---|---|---|---|---|---|---|---|---|---|---|---|---|---|---|---|
| Thursday 13 August 2026 | |||||||||||||||||||
| 00:45 | Trim Patrick St | 3 | 21.8 | 61 | 74,153 | 0 | 10.94 | 1.12 | 29.85 | 53.42 | 4.41 | 5.43 | 9.45 | 10.39 | |||||
| 00:44 | Trim Market St | 3 | 22.5 | 58 | 57,909 | 0 | 0 | 1.07 | 15.21 | 64.43 | 0 | 1.43 | 3.13 | 4.03 | |||||
| 00:44 | Trim Patrick St | 3 | 21.8 | 62 | 74,094 | 0 | 9.7 | 1.11 | 18.74 | 54.62 | 4.65 | 4.57 | 9.38 | 10.32 | |||||
| 00:43 | Trim Patrick St | 3 | 21.8 | 61 | 74,027 | 0 | 12.63 | 1.12 | 31.74 | 50.85 | 4.5 | 4.57 | 8.66 | 9.52 | |||||
| 00:42 | Trim Market St | 3 | 22.5 | 58 | 57,905 | 0 | 0 | 1.07 | 18.42 | 64.89 | 0 | 1.43 | 3.64 | 4.73 | |||||
| 00:42 | Trim Patrick St | 3 | 21.8 | 59 | 73,968 | 0 | 11.79 | 1.14 | 35.24 | 54.44 | 4.51 | 5.43 | 10.28 | 11.31 | |||||
| 00:41 | Trim Market St | 3 | 22.5 | 58 | 57,903 | 0 | 0 | 1.09 | 18.42 | 65.02 | 0 | 1.43 | 3.64 | 6.13 | |||||
| 00:41 | Trim Patrick St | 3 | 21.9 | 60 | 73,895 | 0 | 9.96 | 1.11 | 23.83 | 54.56 | 4.2 | 5.43 | 9.46 | 10.4 | |||||
| 00:40 | Trim Market St | 3 | 22.5 | 57 | 57,897 | 0 | 0 | 1.1 | 17.41 | 63.63 | 0 | 2.14 | 4.15 | 5.42 | |||||
| 00:40 | Trim Patrick St | 3 | 21.9 | 61 | 73,831 | 0 | 10.41 | 1.1 | 24.08 | 51.76 | 4.54 | 4.57 | 7.95 | 8.75 | |||||
| 00:39 | Trim Market St | 3 | 22.6 | 57 | 57,891 | 0 | 0 | 1.09 | 15.58 | 67.15 | 0 | 3.56 | 5.66 | 8.23 | |||||
| 00:39 | Trim Patrick St | 3 | 21.9 | 60 | 73,754 | 0 | 10.97 | 1.12 | 23.1 | 58.38 | 4.35 | 4.57 | 10.25 | 11.28 | |||||
| 00:38 | Trim Patrick St | 3 | 21.9 | 61 | 73,683 | 0 | 11.2 | 1.1 | 37.52 | 48.3 | 4.5 | 4.57 | 9.43 | 10.37 | |||||
| 00:37 | Trim Market St | 3 | 22.6 | 57 | 57,875 | 0 | 0 | 1.06 | 22.29 | 59.47 | 0 | 1.43 | 4.16 | 5.42 | |||||
| 00:37 | Trim Patrick St | 3 | 21.9 | 61 | 73,583 | 0 | 9.67 | 1.1 | 23.51 | 46.77 | 3.85 | 5.43 | 10.19 | 11.21 | |||||
| 00:36 | Trim Market St | 3 | 22.6 | 57 | 57,859 | 0 | 0 | 1.07 | 16.02 | 66.53 | 0 | 2.14 | 4.16 | 7.53 | |||||
| 00:36 | Trim Patrick St | 3 | 21.9 | 59 | 73,516 | 0 | 11.04 | 1.13 | 32.27 | 53.91 | 4.88 | 3.71 | 8.06 | 8.86 | |||||
| 00:35 | Trim Patrick St | 3 | 21.9 | 60 | 73,428 | 0 | 11.65 | 1.11 | 23.87 | 55.15 | 5.16 | 5.43 | 10.21 | 11.23 | |||||
| 00:34 | Trim Patrick St | 3 | 22 | 61 | 73,310 | 0 | 10.06 | 1.1 | 26.54 | 48.28 | 4.54 | 3.71 | 8.71 | 9.58 | |||||
| 00:33 | Trim Market St | 3 | 22.7 | 57 | 57,819 | 0 | 0 | 1.06 | 13.51 | 74.25 | 0 | 2.85 | 4.68 | 6.12 | |||||